[[{"header":{"parameterUnit":"m.s-1","parameterCategory":1,"la1":30.2991,"la2":30.254,"lo1":-89.0895,"lo2":-89.0444,"dy":0.0017,"dx":0.0017,"nx":28,"ny":28,"refTime":"2025-03-23T09:00:00:Z","depth":0,"parameterNumber":2,"parameterNumberName":"U-component_of_WINDS"},"data":[0,0,0,0,0,0,0,0,0,0,0,0,0,0,0,0,0,0,0,0,0,0,0,0,0,0,0,0,0,0,0,0,0,0,0,0,0,0,0,0,0,0,0,0,0,0,0,0,0,0,0,0,0,0,0,0,0,0,0.8079,0.8079,0,0.8097,0.8097,0.8098,0.8092,0.8092,0.8091,0.8091,0.8112,0.8113,0.8114,0,0,0,0,0,0,0,0,0,0,0,0,0,0.8039,0.8039,0.8078,0.8079,0.8079,0.8097,0.8097,0.8098,0.8092,0.8092,0.8091,0.8091,0.8112,0.8113,0.8114,0,0,0,0,0,0,0,0,0,0,0,0,0,0.8057,0.804,0.8078,0.8078,0.8079,0.8097,0.8097,0.8098,0.8092,0.8092,0.8091,0.8091,0.8111,0.8113,0.8114,0.8134,0,0,0.8118,0.8119,0,0,0,0,0,0,0,0,0.8056,0.8058,0.8078,0.8078,0.8079,0.8092,0.8091,0.811,0.8092,0.8087,0.8091,0.809,0.8106,0.8108,0.8112,0.8135,0.8136,0.8118,0.8119,0.812,0.812,0,0,0,0,0,0,0,0.8054,0.8057,0.8086,0.8078,0.8079,0.8078,0.808,0.8095,0.81,0.8088,0.8087,0.8089,0.8106,0.8111,0.8113,0.8137,0.8118,0.812,0.812,0.8121,0.8176,0.8177,0,0,0,0,0,0,0.8053,0.8056,0.8085,0.8087,0.8065,0.8079,0.8081,0.8088,0.8099,0.8101,0.809,0.8089,0.8109,0.8111,0.8114,0.8138,0.812,0.8121,0.8122,0.8176,0.8176,0.8177,0,0,0,0,0,0,0.8052,0.8055,0.8085,0.8071,0.8075,0.808,0.8088,0.8089,0.8094,0.8101,0.8102,0.8094,0.8109,0.8112,0.8129,0.8139,0.8122,0.8123,0.8175,0.8176,0.8177,0.8187,0,0,0,0,0,0,0.8051,0.8055,0.8063,0.8071,0.8076,0.81,0.8089,0.809,0.8096,0.8095,0.8106,0.8107,0.8108,0.8127,0.813,0.814,0.8124,0.8174,0.8175,0.8176,0.8186,0.8188,0.819,0,0,0,0,0,0.8049,0.8066,0.8063,0.8067,0.8085,0.81,0.8103,0.8104,0.8097,0.8105,0.8109,0.8106,0.8137,0.8129,0.8133,0.8143,0.8173,0.8175,0.8176,0.8185,0.8188,0.819,0,0,0,0,0,0,0.8059,0.8067,0.8064,0.8084,0.8091,0.8099,0.8109,0.8107,0.8117,0.8116,0.8117,0.8119,0.8137,0.8142,0.8132,0.8163,0.8154,0.8156,0.8159,0.8162,0.8164,0.8163,0.8125,0,0,0,0,0,0.8063,0.8074,0.808,0.8097,0.8101,0.8104,0.8111,0.8111,0.8119,0.8122,0.8128,0.8136,0.8147,0.8155,0.8166,0.8186,0.8188,0.8195,0.8197,0.8199,0.8201,0.8212,0.8215,0.8182,0.8182,0.8182,0,0,0.8073,0.8078,0.8085,0.8099,0.8105,0.8116,0.8107,0.812,0.8129,0.8124,0.8141,0.8145,0.8154,0.8173,0.8182,0.8177,0.8211,0.8201,0.8202,0.8204,0.8214,0.8217,0.822,0.8183,0.8183,0.8182,0,0,0.8096,0.8101,0.8115,0.812,0.8129,0.8131,0.8134,0.8142,0.8144,0.8161,0.8157,0.8168,0.8187,0.8194,0.82,0.8223,0.8221,0.8226,0.8238,0.8249,0.8251,0.8254,0.8262,0.8265,0.8228,0.8228,0.8228,0,0.8106,0.8123,0.8123,0.8135,0.8141,0.8137,0.8151,0.8157,0.8169,0.8173,0.8168,0.8191,0.8197,0.8217,0.8223,0.8228,0.8232,0.8226,0.8251,0.8253,0.8256,0.8264,0.8267,0.8229,0.8229,0.8229,0.8229,0,0.8136,0.8148,0.8158,0.8169,0.8176,0.8189,0.8191,0.8198,0.8197,0.8199,0.8216,0.8222,0.8234,0.8238,0.8238,0.8258,0.8255,0.825,0.8242,0.8259,0.8267,0.827,0.823,0.823,0.823,0.823,0,0,0.8167,0.8176,0.818,0.8184,0.8192,0.8202,0.8214,0.8225,0.8231,0.8239,0.825,0.8266,0.8261,0.8268,0.8268,0.8277,0.8295,0.8271,0.8271,0.8275,0.8317,0.8322,0.8325,0.8293,0.8293,0.8294,0.8317,0,0.8191,0.8214,0.8213,0.8234,0.8245,0.8239,0.8251,0.8257,0.8259,0.8268,0.8271,0.8282,0.8275,0.8279,0.8287,0.8291,0.8303,0.8289,0.8303,0.8304,0.8302,0.8329,0.8334,0.8356,0.832,0.832,0.8321,0,0.8223,0.8231,0.8253,0.8258,0.8263,0.8273,0.8282,0.8291,0.8297,0.8298,0.8305,0.8303,0.8316,0.8306,0.8324,0.8314,0.832,0.8322,0.8323,0.8325,0.8314,0.8333,0.8362,0.8366,0.8325,0.8325,0.8325,0,0.8244,0.826,0.8275,0.8279,0.8286,0.8293,0.8296,0.8302,0.8308,0.8316,0.832,0.8329,0.8335,0.8342,0.8343,0.8336,0.8361,0.8351,0.8363,0.8363,0.8369,0.8369,0.8401,0.8371,0.8371,0.8371,0.8371,0,0.8272,0.8285,0.8284,0.8294,0.8309,0.8307,0.8322,0.8325,0.833,0.8339,0.8335,0.8345,0.8344,0.8354,0.8354,0.8369,0.8371,0.8373,0.8373,0.8374,0.8374,0.8378,0.8377,0.8372,0.8372,0.8372,0.8372,0,0.8299,0.8298,0.8314,0.8319,0.832,0.8331,0.8335,0.8344,0.8345,0.8357,0.836,0.8362,0.8373,0.8373,0.8386,0.8386,0.8404,0.8402,0.8402,0.8402,0.8414,0.8413,0.845,0.8455,0.8422,0.8422,0.8422,0,0.8317,0.8327,0.8332,0.8338,0.8341,0.8351,0.8357,0.8355,0.8361,0.8368,0.8376,0.8386,0.8395,0.8412,0.8415,0.8424,0.8423,0.8435,0.8424,0.8425,0.8424,0.8423,0.8424,0.8438,0.8438,0.8438,0.8439,0,0.8349,0.8348,0.8356,0.8364,0.8371,0.8377,0.8383,0.8388,0.8387,0.8394,0.8405,0.8411,0.8423,0.8433,0.8442,0.8446,0.8442,0.8442,0.8445,0.8447,0.8446,0.8447,0.8409,0.8441,0.8441,0.8441,0.8441,0.8441,0.8372,0.8381,0.8386,0.8395,0.8399,0.8404,0.8412,0.8413,0.8422,0.8431,0.843,0.8441,0.8446,0.8458,0.8462,0.8471,0.8467,0.8471,0.8473,0.8474,0.8475,0.8443,0.8472,0.8472,0.8472,0.8472,0.8472,0,0.8405,0.8407,0.8415,0.8423,0.843,0.8425,0.8431,0.8437,0.8447,0.8452,0.8459,0.8471,0.848,0.8483,0.8492,0.8499,0.8497,0.8501,0.8501,0.8502,0.8478,0.8475,0.8502,0.8502,0.8502,0.8502,0.8502,0.8502,0.8423,0.8437,0.8436,0.8452,0.8454,0.8465,0.8469,0.8473,0.8477,0.849,0.8497,0.8499,0.8502,0.8511,0.852,0.852,0.8524,0.8529,0.8529,0.8507,0.8504,0.8501,0.8498,0.8529,0.8529,0.8551,0.8552,0.8552]},{"header":{"parameterUnit":"m.s-1","parameterCategory":1,"la1":30.2991,"la2":30.254,"lo1":-89.0895,"lo2":-89.0444,"dy":0.0017,"dx":0.0017,"nx":28,"ny":28,"refTime":"2025-03-23T09:00:00:Z","depth":0,"parameterNumber":3,"parameterNumberName":"V-component_of_WINDS"},"data":[0,0,0,0,0,0,0,0,0,0,0,0,0,0,0,0,0,0,0,0,0,0,0,0,0,0,0,0,0,0,0,0,0,0,0,0,0,0,0,0,0,0,0,0,0,0,0,0,0,0,0,0,0,0,0,0,0,0,1.542,1.542,0,1.5501,1.5502,1.5503,1.5543,1.5543,1.5543,1.5543,1.5623,1.5625,1.5627,0,0,0,0,0,0,0,0,0,0,0,0,0,1.5294,1.5296,1.542,1.5421,1.5422,1.5501,1.5502,1.5503,1.5543,1.5543,1.5543,1.5543,1.5622,1.5625,1.5627,0,0,0,0,0,0,0,0,0,0,0,0,0,1.5359,1.5296,1.5419,1.5451,1.5454,1.5501,1.5502,1.5504,1.5543,1.5543,1.5543,1.5543,1.5621,1.5624,1.5628,1.5648,0,0,1.5638,1.5639,0,0,0,0,0,0,0,0,1.5355,1.5364,1.5445,1.5449,1.5453,1.5512,1.5487,1.5552,1.5543,1.5509,1.5543,1.5542,1.5586,1.5592,1.5607,1.5652,1.5655,1.5638,1.564,1.5641,1.5642,0,0,0,0,0,0,0,1.5351,1.536,1.5452,1.5446,1.5451,1.546,1.5469,1.55,1.5546,1.5512,1.5515,1.5524,1.5588,1.5604,1.5609,1.5657,1.5638,1.5641,1.5643,1.5644,1.5721,1.5722,0,0,0,0,0,0,1.5342,1.5356,1.5449,1.5454,1.5403,1.5462,1.5472,1.5493,1.5546,1.5554,1.5524,1.5526,1.5598,1.5606,1.5612,1.564,1.5641,1.5644,1.5646,1.5721,1.5721,1.5722,0,0,0,0,0,0,1.5339,1.5349,1.5446,1.5406,1.5419,1.5464,1.5487,1.5494,1.5511,1.5556,1.5564,1.5533,1.5599,1.5608,1.5639,1.5643,1.5646,1.5649,1.5721,1.5721,1.5722,1.5695,0,0,0,0,0,0,1.5335,1.5348,1.5357,1.5406,1.5421,1.5472,1.5487,1.5496,1.5517,1.5519,1.5565,1.5573,1.5599,1.5634,1.5642,1.5648,1.5651,1.5721,1.5721,1.5721,1.5696,1.5694,1.5693,0,0,0,0,0,1.533,1.5346,1.5358,1.5369,1.5434,1.5473,1.5481,1.5512,1.5517,1.5526,1.5554,1.5572,1.5641,1.5637,1.5647,1.5653,1.5721,1.5721,1.5721,1.5696,1.5695,1.5693,0,0,0,0,0,0,1.5296,1.5353,1.5367,1.5399,1.5431,1.5479,1.5492,1.5509,1.554,1.5541,1.5577,1.5587,1.5615,1.5637,1.5631,1.5675,1.5683,1.5685,1.566,1.5659,1.5657,1.5652,1.5654,0,0,0,0,0,1.5292,1.532,1.5368,1.5391,1.5407,1.5446,1.5464,1.5486,1.552,1.5533,1.5564,1.5595,1.5624,1.5643,1.5672,1.5699,1.5709,1.5708,1.5706,1.5705,1.5707,1.5722,1.5722,1.5722,1.5722,1.5722,0,0,1.5284,1.5319,1.5334,1.5385,1.5413,1.544,1.5457,1.5485,1.5506,1.5537,1.5569,1.5592,1.5629,1.5659,1.5673,1.5678,1.5709,1.5705,1.5704,1.5706,1.5722,1.5722,1.5722,1.5723,1.5723,1.5723,0,0,1.5284,1.5313,1.5336,1.5363,1.5405,1.5431,1.5436,1.5482,1.5499,1.5532,1.5556,1.5579,1.5629,1.5654,1.5674,1.5682,1.5699,1.569,1.5684,1.5698,1.5698,1.5699,1.5702,1.5702,1.5692,1.5692,1.5692,0,1.5269,1.5312,1.5346,1.5373,1.5394,1.5424,1.5447,1.5471,1.5519,1.5533,1.5538,1.56,1.5627,1.5663,1.5665,1.5679,1.5686,1.5686,1.5696,1.5696,1.5697,1.57,1.5702,1.5691,1.5691,1.5691,1.5691,0,1.5292,1.5321,1.5334,1.5381,1.5404,1.5429,1.5465,1.5484,1.5502,1.5527,1.556,1.5593,1.563,1.5639,1.5657,1.5677,1.5679,1.5689,1.5697,1.5695,1.5699,1.5701,1.5689,1.5689,1.569,1.569,0,0,1.5273,1.5338,1.5342,1.5364,1.5411,1.5434,1.5459,1.5496,1.5511,1.5543,1.5565,1.5605,1.5615,1.5637,1.5658,1.5671,1.5676,1.568,1.5681,1.5678,1.5699,1.5692,1.5693,1.5686,1.5687,1.5687,1.5696,0,1.528,1.5329,1.5359,1.5395,1.5422,1.5451,1.5473,1.5503,1.5527,1.5552,1.5578,1.5607,1.5617,1.5631,1.5645,1.5672,1.568,1.5672,1.5706,1.5707,1.5697,1.5695,1.5687,1.5694,1.5698,1.5698,1.5698,0,1.5295,1.5327,1.5366,1.541,1.5423,1.5442,1.5478,1.5502,1.5537,1.5553,1.5577,1.5599,1.5625,1.5631,1.5667,1.5661,1.5676,1.5692,1.5693,1.5698,1.5703,1.57,1.5697,1.5698,1.5701,1.5701,1.57,0,1.5278,1.5331,1.5361,1.5378,1.5431,1.5444,1.5466,1.5501,1.552,1.5551,1.5564,1.5597,1.5615,1.5639,1.5668,1.5669,1.5702,1.5709,1.5715,1.5715,1.5722,1.5721,1.5722,1.573,1.573,1.573,1.573,0,1.5283,1.5306,1.5354,1.5373,1.5399,1.5433,1.5457,1.5481,1.5512,1.5534,1.556,1.5581,1.5618,1.5642,1.5665,1.5692,1.5699,1.5713,1.5719,1.5711,1.5709,1.5722,1.5723,1.5731,1.5731,1.5731,1.5731,0,1.5269,1.5302,1.5337,1.5384,1.5396,1.5413,1.5452,1.5471,1.5495,1.5524,1.5532,1.5571,1.5601,1.5633,1.5673,1.5688,1.5715,1.5722,1.5703,1.5707,1.5711,1.571,1.5721,1.5724,1.573,1.573,1.573,0,1.527,1.5289,1.5337,1.5355,1.5377,1.5405,1.5426,1.5459,1.548,1.552,1.5533,1.5566,1.5594,1.5641,1.5672,1.5703,1.5712,1.5713,1.5716,1.5708,1.5712,1.5711,1.5713,1.5712,1.5712,1.5711,1.5711,0,1.5269,1.5285,1.5315,1.535,1.5374,1.5403,1.5433,1.5445,1.5484,1.5505,1.5538,1.5559,1.5601,1.5633,1.5667,1.5689,1.5706,1.571,1.5713,1.5706,1.5694,1.5701,1.5701,1.571,1.571,1.571,1.571,1.571,1.5264,1.5281,1.5319,1.535,1.5376,1.5404,1.5423,1.5451,1.5479,1.5516,1.5534,1.5566,1.5599,1.5647,1.5668,1.5693,1.5698,1.5702,1.5703,1.5704,1.5702,1.569,1.5699,1.5699,1.5699,1.5699,1.5699,0,1.5264,1.529,1.5319,1.536,1.5385,1.54,1.5434,1.5453,1.5481,1.5511,1.5539,1.5575,1.5606,1.5638,1.5671,1.5684,1.5693,1.5691,1.5691,1.5696,1.5696,1.569,1.5684,1.5684,1.5684,1.5684,1.5684,1.5684,1.5268,1.5299,1.5318,1.5362,1.5387,1.5419,1.5437,1.5462,1.5486,1.5526,1.5552,1.5574,1.5605,1.5639,1.5668,1.5677,1.5687,1.5684,1.5695,1.5694,1.5696,1.5697,1.5692,1.5686,1.5686,1.5693,1.5693,1.5693]}]]